QPF
0.00 0.00 0.00 0.00 0.00 0.00 0.00 0.00 0.00 0.00 0.00 0.00 0.00 0.00 0.00 0.00 0.00 0.00 0.00 0.00 0.00 0.00 0.00 0.00 0.00 0.00 0.00 0.00 0.00 0.00 0.00 0.00 0.00 0.00 0.00 0.00 0.00 0.00 0.00 0.00 0.00 0.00 0.00
0.00 0.00 0.00 0.00 0.00 0.00 0.00 0.00 0.00 0.00 0.00 0.00 0.00 0.00 0.00 0.00 0.00 0.00 0.00 0.00 0.00 0.00 0.00 0.00 0.00 0.00 0.00 0.00 0.00 0.00 0.00 0.00 0.00 0.00 0.00 0.00 0.00 0.00 0.00 0.00 0.00 0.00 0.00
0.00 0.00 0.00 0.00 0.00 0.00 0.00 0.00 0.00 0.00 0.00 0.00 0.00 0.00 0.00 0.00 0.00 0.00 0.00 0.00 0.00 0.00 0.00 0.00 0.00 0.00 0.00 0.00 0.00 0.00 0.00 0.00 0.00 0.00 0.00 0.00 0.00 0.00 0.00 0.00 0.00 0.00 0.00
0.00 0.00 0.00 0.00 0.00 0.00 0.00 0.00 0.00 0.00 0.00 0.00 0.00 0.00 0.00 0.00 0.00 0.00 0.00 0.00 0.00 0.00 0.00 0.00 0.00 0.00 0.00 0.00 0.00 0.00 0.00 0.00 0.00 0.00 0.00 0.00 0.00 0.00 0.00 0.00 0.00 0.00 0.00
0.00 0.00 0.00 0.00 0.00 0.00 0.00 0.00 0.00 0.00 0.00 0.00 0.00 0.00 0.00 0.00 0.00 0.00 0.00 0.00 0.00 0.00 0.00 0.00 0.00 0.00 0.00 0.00 0.00 0.00 0.00 0.00 0.00 0.00 0.00 0.00 0.00 0.00 0.00 0.00 0.00 0.00 0.00
0.00 0.00 0.00 0.00 0.00 0.00 0.00 0.00 0.00 0.00 0.00 0.00 0.00 0.00 0.00 0.00 0.00 0.00 0.00 0.00 0.00 0.00 0.00 0.00 0.00 0.00 0.00 0.00 0.00 0.00 0.00 0.00 0.00 0.00 0.00 0.00 0.00 0.00 0.00 0.00 0.00 0.00 0.00
0.00 0.00 0.00 0.00 0.00 0.00 0.00 0.00 0.00 0.00 0.00 0.00 0.00 0.00 0.00 0.00 0.00 0.00 0.00 0.00 0.00 0.00 0.00 0.00 0.00 0.00 0.00 0.00 0.00 0.00 0.00 0.00 0.00 0.00 0.00 0.00 0.00 0.00 0.00 0.00 0.00 0.00 0.00
0.00 0.00 0.00 0.00 0.00 0.00 0.00 0.00 0.00 0.00 0.00 0.00 0.00 0.00 0.00 0.00 0.00 0.00 0.00 0.00 0.00 0.00 0.00 0.00 0.00 0.00 0.00 0.00 0.00 0.00 0.00 0.00 0.00 0.00 0.00 0.00 0.00 0.00 0.00 0.01 0.02 0.01 0.00
0.00 0.00 0.00 0.00 0.00 0.00 0.00 0.00 0.00 0.00 0.00 0.00 0.00 0.00 0.00 0.00 0.00 0.00 0.00 0.00 0.00 0.00 0.00 0.00 0.00 0.00 0.00 0.00 0.00 0.00 0.00 0.00 0.00 0.00 0.00 0.00 0.00 0.00 0.00 0.00 0.00 0.00 0.00
0.00 0.00 0.00 0.00 0.00 0.00 0.00 0.00 0.00 0.00 0.00 0.00 0.00 0.00 0.00 0.00 0.00 0.00 0.00 0.00 0.00 0.00 0.00 0.00 0.00 0.00 0.00 0.00 0.00 0.00 0.00 0.00 0.00 0.00 0.00 0.00 0.00 0.00 0.00 0.00 0.00 0.00 0.01
0.00 0.00 0.00 0.00 0.00 0.00 0.00 0.00 0.00 0.00 0.00 0.00 0.00 0.00 0.00 0.00 0.00 0.00 0.00 0.00 0.00 0.00 0.00 0.00 0.00 0.00 0.00 0.00 0.00 0.00 0.00 0.00 0.00 0.00 0.01 0.01 0.01 0.01 0.00 0.00 0.02 0.02 0.01
0.00 0.00 0.00 0.00 0.00 0.00 0.00 0.00 0.00 0.00 0.00 0.00 0.00 0.00 0.00 0.00 0.00 0.00 0.00 0.00 0.00 0.00 0.00 0.00 0.00 0.00 0.00 0.00 0.00 0.00 0.00 0.00 0.00 0.00 0.00 0.00 0.00 0.00 0.01 0.02 0.01 0.01 0.01
0.00 0.00 0.00 0.00 0.00 0.00 0.00 0.00 0.00 0.00 0.00 0.00 0.00 0.00 0.00 0.00 0.00 0.00 0.00 0.00 0.00 0.00 0.00 0.00 0.00 0.00 0.00 0.00 0.00 0.00 0.00 0.00 0.00 0.01 0.01 0.01 0.01 0.01 0.01 0.01 0.01 0.01 0.00
0.00 0.00 0.00 0.00 0.00 0.00 0.00 0.00 0.00 0.00 0.00 0.00 0.00 0.00 0.00 0.00 0.00 0.00 0.00 0.00 0.00 0.00 0.00 0.00 0.00 0.00 0.00 0.00 0.00 0.00 0.00 0.00 0.00 0.01 0.02 0.01 0.00 0.00 0.00 0.00 0.00 0.00 0.00
0.00 0.00 0.00 0.00 0.00 0.00 0.00 0.00 0.00 0.00 0.00 0.00 0.00 0.00 0.00 0.00 0.00 0.00 0.00 0.00 0.00 0.00 0.00 0.00 0.00 0.00 0.00 0.00 0.00 0.00 0.00 0.00 0.00 0.00 0.00 0.00 0.00 0.00 0.00 0.00 0.00 0.00 0.00
0.00 0.00 0.00 0.00 0.00 0.00 0.00 0.00 0.00 0.00 0.00 0.00 0.00 0.00 0.00 0.00 0.00 0.00 0.00 0.00 0.00 0.00 0.00 0.00 0.00 0.00 0.00 0.00 0.00 0.00 0.00 0.00 0.00 0.00 0.00 0.00 0.00 0.00 0.00 0.00 0.00 0.00 0.00
0.00 0.00 0.00 0.01 0.00 0.02 0.01 0.00 0.00 0.00 0.00 0.00 0.00 0.00 0.00 0.00 0.00 0.00 0.00 0.00 0.00 0.00 0.00 0.00 0.00 0.00 0.00 0.00 0.00 0.00 0.00 0.00 0.00 0.00 0.00 0.00 0.00 0.00 0.00 0.00 0.00 0.00 0.00
0.08 0.06 0.06 0.04 0.01 0.13 0.22 0.06 0.01 0.01 0.01 0.00 0.00 0.00 0.00 0.00 0.00 0.00 0.00 0.00 0.00 0.00 0.00 0.00 0.00 0.00 0.00 0.00 0.00 0.00 0.00 0.00 0.00 0.00 0.00 0.00 0.00 0.00 0.00 0.00 0.00 0.00 0.00
0.05 0.05 0.02 0.01 0.00 0.01 0.03 0.04 0.03 0.03 0.03 0.02 0.02 0.00 0.00 0.00 0.00 0.00 0.00 0.00 0.01 0.00 0.00 0.00 0.00 0.00 0.00 0.00 0.00 0.00 0.00 0.00 0.00 0.00 0.00 0.00 0.00 0.00 0.00 0.00 0.00 0.00 0.00
0.02 0.05 0.02 0.00 0.03 0.03 0.04 0.02 0.01 0.02 0.03 0.02 0.00 0.00 0.00 0.00 0.00 0.00 0.00 0.00 0.00 0.00 0.00 0.00 0.00 0.00 0.00 0.00 0.00 0.00 0.00 0.00 0.00 0.00 0.00 0.00 0.00 0.00 0.00 0.00 0.00 0.00 0.00
0.00 0.00 0.00 0.00 0.00 0.01 0.00 0.01 0.00 0.00 0.01 0.03 0.02 0.00 0.00 0.00 0.00 0.00 0.00 0.00 0.00 0.00 0.00 0.00 0.00 0.00 0.00 0.00 0.00 0.00 0.00 0.00 0.00 0.00 0.00 0.00 0.00 0.00 0.00 0.00 0.00 0.00 0.00
0.00 0.00 0.00 0.00 0.00 0.00 0.00 0.00 0.00 0.00 0.00 0.01 0.00 0.00 0.00 0.00 0.00 0.00 0.00 0.00 0.00 0.00 0.00 0.00 0.00 0.00 0.00 0.00 0.00 0.00 0.00 0.00 0.00 0.00 0.00 0.00 0.00 0.00 0.00 0.00 0.00 0.00 0.00
0.00 0.00 0.00 0.00 0.00 0.00 0.00 0.00 0.00 0.00 0.00 0.00 0.00 0.00 0.00 0.00 0.00 0.00 0.00 0.00 0.00 0.00 0.00 0.00 0.00 0.00 0.00 0.00 0.00 0.00 0.00 0.00 0.00 0.00 0.00 0.00 0.00 0.00 0.00 0.00 0.00 0.00 0.00
0.02 0.01 0.00 0.00 0.00 0.00 0.00 0.00 0.00 0.00 0.00 0.00 0.00 0.00 0.00 0.00 0.00 0.00 0.00 0.00 0.00 0.00 0.00 0.00 0.00 0.00 0.00 0.00 0.00 0.00 0.00 0.00 0.00 0.00 0.00 0.00 0.00 0.00 0.00 0.00 0.00 0.00 0.00
0.00 0.01 0.02 0.01 0.00 0.00 0.00 0.00 0.00 0.00 0.00 0.00 0.00 0.00 0.00 0.00 0.00 0.00 0.00 0.00 0.00 0.00 0.00 0.00 0.00 0.00 0.00 0.00 0.00 0.00 0.00 0.00 0.00 0.00 0.00 0.00 0.00 0.00 0.00 0.00 0.00 0.00 0.00
0.00 0.00 0.00 0.00 0.00 0.00 0.00 0.00 0.00 0.00 0.00 0.00 0.00 0.00 0.00 0.00 0.00 0.00 0.00 0.00 0.00 0.00 0.00 0.00 0.00 0.00 0.00 0.00 0.00 0.00 0.00 0.00 0.00 0.00 0.00 0.00 0.01 0.02 0.02 0.02 0.02 0.01 0.01
MSLP
1010.48 1011.42 1012.18 1012.91 1013.70 1014.56 1015.08 1015.54 1015.93 1016.27 1016.45 1016.89 1017.15 1017.42 1017.55 1017.76 1018.15 1018.57 1018.82 1018.81 1019.16 1019.41 1019.58 1019.71 1019.94 1020.00 1019.69 1019.39 1019.55 1019.62 1019.54 1019.52 1019.11 1018.56 1018.22 1018.08 1018.78 1019.07 1018.72 1018.46 1018.41 1018.35 1017.85
1009.22 1010.25 1011.11 1011.98 1012.74 1013.41 1014.14 1014.70 1015.26 1015.73 1016.04 1016.34 1016.62 1016.95 1017.09 1017.22 1017.52 1017.96 1018.26 1018.24 1018.67 1018.86 1018.99 1019.18 1019.37 1019.41 1019.72 1019.67 1019.34 1019.40 1019.23 1019.23 1019.13 1018.60 1018.32 1018.17 1018.09 1017.99 1018.02 1018.30 1017.92 1017.22 1016.61
1008.20 1009.12 1009.91 1010.74 1011.62 1012.29 1012.99 1013.81 1014.46 1015.02 1015.37 1015.64 1015.97 1016.28 1016.52 1016.68 1016.96 1017.30 1017.62 1017.82 1017.99 1018.22 1018.41 1018.50 1018.71 1018.88 1019.03 1018.92 1018.98 1018.79 1018.64 1018.88 1018.81 1018.52 1017.94 1017.72 1017.34 1017.20 1017.12 1017.16 1017.20 1016.78 1016.52
1006.87 1007.97 1008.73 1009.39 1010.18 1011.10 1011.96 1012.81 1013.48 1014.09 1014.53 1014.92 1015.22 1015.56 1015.85 1016.12 1016.38 1016.67 1016.96 1017.22 1017.35 1017.48 1017.73 1017.90 1018.07 1018.17 1018.29 1018.52 1018.65 1018.64 1018.62 1018.41 1017.96 1017.83 1017.44 1017.01 1016.62 1016.34 1016.26 1015.97 1015.72 1015.61 1014.78
1005.53 1006.52 1007.46 1008.40 1009.26 1010.16 1010.98 1011.83 1012.56 1013.14 1013.60 1014.06 1014.48 1014.82 1015.16 1015.38 1015.51 1015.92 1016.23 1016.45 1016.69 1016.88 1016.98 1017.17 1017.42 1017.53 1017.67 1017.88 1017.79 1017.65 1017.76 1017.79 1017.51 1017.04 1016.54 1016.19 1015.76 1015.52 1015.31 1015.06 1014.72 1014.39 1014.00
1004.38 1005.26 1006.34 1007.53 1008.31 1009.05 1009.98 1010.82 1011.61 1012.14 1012.67 1013.20 1013.54 1013.91 1014.26 1014.43 1014.47 1015.02 1015.52 1015.69 1015.95 1016.17 1016.29 1016.40 1016.59 1016.85 1017.16 1017.38 1017.58 1017.66 1017.65 1017.53 1017.28 1016.92 1016.19 1015.70 1015.47 1015.55 1015.08 1014.78 1014.24 1013.82 1012.80
1003.69 1004.68 1005.48 1006.53 1007.46 1008.10 1008.87 1009.72 1010.46 1011.09 1011.67 1012.19 1012.64 1013.02 1013.30 1013.69 1013.90 1014.33 1014.87 1015.26 1015.17 1015.32 1015.52 1015.63 1015.70 1015.59 1016.03 1016.34 1016.46 1016.76 1016.85 1016.89 1017.04 1016.80 1016.07 1015.54 1015.14 1015.24 1015.01 1014.62 1014.26 1013.74 1013.04
1003.14 1004.16 1004.95 1005.60 1006.54 1007.46 1008.14 1008.67 1009.43 1010.14 1010.65 1011.11 1011.63 1012.07 1012.48 1012.70 1013.16 1013.67 1014.23 1014.76 1014.74 1014.66 1014.64 1014.84 1015.09 1015.16 1015.26 1015.36 1015.46 1015.45 1015.39 1015.24 1015.34 1015.64 1015.38 1015.14 1015.12 1015.06 1014.86 1014.50 1014.26 1013.76 1013.08
1002.23 1002.94 1003.74 1004.62 1005.52 1006.49 1007.30 1007.88 1008.46 1009.18 1009.72 1010.09 1010.61 1011.06 1011.44 1011.77 1012.25 1012.91 1013.71 1014.07 1013.93 1013.82 1013.95 1014.06 1014.16 1014.27 1014.44 1014.85 1015.12 1014.74 1014.52 1014.18 1013.82 1014.16 1014.13 1014.07 1014.22 1014.50 1014.72 1014.52 1014.11 1013.44 1012.49
1001.05 1001.74 1002.92 1003.84 1004.66 1005.36 1006.28 1007.04 1007.71 1008.34 1008.65 1009.06 1009.47 1009.94 1010.34 1010.73 1011.36 1012.02 1012.85 1013.00 1012.64 1012.60 1012.85 1013.04 1013.34 1013.50 1013.69 1014.14 1014.34 1014.08 1013.56 1013.47 1013.30 1013.00 1013.18 1013.50 1013.66 1013.51 1013.93 1013.97 1013.35 1012.72 1012.30
1000.84 1001.62 1002.44 1003.30 1004.10 1004.75 1005.56 1006.31 1006.90 1007.46 1007.75 1008.33 1008.57 1008.94 1009.39 1009.83 1010.36 1011.00 1011.73 1012.03 1011.46 1011.36 1011.35 1011.32 1011.61 1012.08 1012.76 1013.16 1013.47 1013.41 1013.04 1013.14 1012.84 1012.70 1012.56 1012.39 1012.38 1012.29 1011.98 1011.88 1011.91 1012.00 1012.22
1000.42 1000.99 1001.78 1002.74 1003.58 1004.18 1004.92 1005.62 1006.23 1006.76 1007.27 1007.58 1008.07 1008.21 1008.30 1008.92 1009.50 1010.02 1010.58 1011.00 1010.89 1010.68 1010.38 1010.23 1010.58 1011.08 1011.69 1012.23 1012.76 1012.90 1012.93 1013.02 1012.82 1012.39 1012.08 1011.85 1011.62 1011.24 1011.37 1011.54 1011.37 1011.62 1011.84
999.92 1000.58 1001.32 1002.19 1003.18 1003.37 1004.33 1005.04 1005.63 1006.11 1006.21 1006.82 1006.92 1007.12 1007.10 1007.21 1008.06 1008.74 1009.50 1010.14 1010.47 1010.77 1010.14 1009.96 1010.37 1010.95 1011.39 1011.76 1011.93 1012.11 1012.34 1012.46 1011.89 1011.50 1011.51 1011.43 1011.66 1011.59 1011.59 1011.62 1011.44 1011.33 1011.00
999.54 1000.45 1001.08 1001.80 1002.65 1003.22 1003.91 1004.58 1004.84 1004.93 1005.47 1005.52 1005.72 1005.76 1005.94 1006.21 1006.44 1006.89 1008.35 1009.52 1010.01 1010.38 1010.40 1010.11 1010.25 1010.60 1010.80 1010.96 1011.14 1011.29 1011.42 1011.20 1010.92 1011.29 1011.25 1011.09 1011.06 1011.29 1011.31 1011.20 1011.08 1010.68 1009.65
999.37 1000.04 1000.44 1001.00 1002.02 1002.72 1003.28 1003.95 1004.22 1004.16 1004.67 1005.08 1005.13 1005.15 1005.04 1005.26 1005.59 1006.14 1006.64 1007.13 1007.94 1008.53 1009.03 1009.17 1009.10 1009.45 1009.72 1010.04 1010.18 1010.08 1010.07 1010.33 1010.63 1010.62 1010.79 1010.79 1010.84 1010.84 1010.55 1010.64 1010.47 1009.65 1009.09
999.24 999.36 999.74 1000.06 1001.12 1001.77 1002.56 1004.03 1004.97 1005.36 1005.78 1005.78 1005.50 1005.66 1004.67 1005.41 1005.79 1006.14 1006.89 1007.46 1007.84 1008.02 1008.68 1008.16 1008.06 1008.88 1009.11 1009.21 1009.16 1009.34 1009.58 1009.82 1010.07 1010.36 1010.36 1010.21 1010.08 1010.04 1009.93 1009.62 1009.19 1008.97 1008.95
999.64 999.52 1000.23 1000.36 1000.63 1001.40 1002.34 1002.80 1003.78 1005.04 1005.30 1006.00 1006.57 1006.16 1006.08 1006.73 1006.26 1006.55 1007.18 1008.06 1008.44 1008.45 1008.12 1007.50 1007.80 1007.80 1007.90 1008.34 1008.72 1008.71 1008.87 1009.16 1009.52 1009.58 1009.48 1009.53 1009.58 1009.46 1009.30 1008.93 1008.59 1008.66 1008.79
1002.19 999.94 1001.97 1001.59 1001.00 1001.87 1002.62 1002.81 1003.08 1003.66 1002.82 1003.64 1006.20 1006.71 1006.60 1006.70 1006.55 1006.90 1007.41 1007.88 1008.58 1008.58 1008.01 1007.81 1007.76 1007.86 1008.06 1008.16 1008.25 1008.37 1008.62 1008.81 1009.04 1008.93 1008.84 1008.87 1008.78 1008.62 1008.37 1008.29 1008.31 1008.48 1008.47
1001.60 1000.34 1002.69 1001.88 1001.26 1001.10 1001.92 1002.45 1002.71 1002.41 1002.06 1002.95 1005.36 1007.31 1007.17 1006.67 1006.55 1007.04 1007.28 1007.20 1006.93 1006.93 1007.28 1007.42 1007.68 1007.90 1007.96 1007.96 1008.10 1008.22 1008.37 1008.48 1008.21 1008.08 1008.24 1008.16 1008.14 1008.12 1008.19 1008.14 1008.01 1008.60 1009.11
1003.04 1003.92 1002.89 1001.77 1000.90 1001.56 1002.14 1001.52 1002.23 1002.19 1002.03 1002.84 1003.96 1005.00 1006.13 1006.05 1006.38 1006.78 1007.27 1007.27 1006.91 1006.42 1006.50 1006.88 1007.32 1007.61 1007.41 1007.89 1007.88 1007.83 1007.74 1007.94 1008.00 1008.08 1007.98 1007.90 1007.89 1007.98 1007.91 1007.73 1007.70 1007.95 1009.07
1003.59 1002.55 1002.35 1001.77 1000.40 1000.80 1001.96 1001.28 1001.59 1002.64 1003.50 1004.28 1004.80 1005.38 1005.63 1005.12 1005.45 1005.94 1006.36 1006.39 1006.26 1006.30 1006.38 1006.58 1006.81 1007.19 1007.45 1007.42 1007.32 1007.40 1007.27 1007.33 1007.39 1007.49 1007.57 1007.96 1007.90 1007.73 1007.85 1007.86 1008.08 1008.29 1008.52
1004.16 1003.62 1003.19 1002.32 1001.31 1001.51 1000.94 1001.16 1002.17 1002.86 1003.21 1003.62 1004.18 1005.65 1005.75 1005.23 1004.86 1004.86 1005.52 1006.20 1006.93 1007.22 1007.74 1007.72 1007.52 1008.01 1008.53 1008.46 1008.38 1008.10 1007.76 1007.74 1007.62 1007.77 1008.10 1008.26 1008.07 1008.02 1007.92 1007.96 1007.88 1007.93 1008.06
1004.83 1004.54 1003.91 1003.24 1002.73 1002.41 1002.57 1002.58 1002.48 1002.78 1002.84 1003.14 1003.87 1005.20 1005.92 1005.46 1005.33 1005.63 1006.19 1006.50 1007.12 1007.60 1008.02 1008.30 1008.50 1008.62 1009.15 1009.30 1009.22 1009.16 1008.97 1008.95 1008.78 1008.76 1008.54 1008.35 1008.16 1007.84 1007.77 1007.66 1007.53 1007.42 1007.46
1006.79 1006.20 1005.64 1004.52 1003.53 1003.18 1002.58 1002.62 1002.85 1004.16 1004.15 1003.76 1004.61 1005.19 1005.44 1005.78 1006.23 1006.94 1007.07 1007.32 1007.80 1008.05 1008.61 1008.98 1009.28 1009.47 1009.64 1009.61 1009.63 1009.77 1009.88 1010.12 1009.73 1008.50 1008.32 1008.23 1008.04 1007.85 1007.59 1007.48 1007.02 1007.01 1007.02
1008.49 1008.45 1008.33 1007.93 1007.36 1006.84 1005.96 1005.69 1005.72 1006.00 1006.32 1006.59 1006.66 1006.73 1007.08 1007.18 1007.42 1007.90 1008.11 1008.37 1008.56 1009.00 1009.55 1009.74 1010.04 1010.28 1010.55 1010.78 1010.76 1010.73 1011.32 1010.93 1010.54 1010.13 1009.12 1007.88 1007.14 1007.11 1007.41 1007.02 1006.54 1006.59 1006.81
1010.35 1010.08 1010.12 1010.10 1010.06 1009.74 1009.22 1008.76 1008.60 1008.63 1008.83 1009.11 1009.39 1009.69 1009.61 1009.70 1009.81 1009.84 1009.96 1009.98 1009.99 1010.13 1010.32 1010.66 1010.57 1010.56 1010.68 1011.35 1011.91 1011.88 1011.41 1011.10 1010.42 1010.10 1009.16 1007.94 1007.08 1006.56 1006.41 1006.44 1006.40 1006.42 1006.18
Thickness
5811 5809 5807 5807 5805 5801 5800 5798 5798 5798 5801 5800 5801 5801 5801 5799 5796 5793 5791 5792 5788 5787 5788 5787 5785 5787 5790 5794 5793 5793 5792 5791 5786 5797 5806 5807 5800 5797 5798 5798 5797 5796 5798
5820 5815 5812 5810 5808 5807 5804 5803 5801 5800 5802 5802 5803 5802 5803 5803 5801 5797 5794 5795 5791 5789 5790 5788 5788 5791 5789 5790 5794 5793 5795 5797 5793 5791 5801 5803 5803 5805 5803 5800 5800 5803 5806
5822 5819 5817 5815 5813 5812 5811 5807 5805 5804 5804 5805 5804 5803 5804 5805 5803 5801 5798 5797 5795 5794 5794 5792 5792 5793 5791 5795 5796 5798 5801 5799 5799 5796 5799 5807 5809 5811 5809 5807 5804 5804 5804
5829 5823 5822 5822 5822 5819 5816 5812 5810 5809 5808 5807 5807 5806 5806 5806 5805 5803 5801 5799 5798 5797 5797 5797 5797 5797 5797 5797 5797 5798 5799 5800 5804 5802 5804 5806 5810 5814 5813 5810 5808 5811 5814
5836 5831 5830 5827 5825 5823 5819 5816 5813 5813 5813 5812 5810 5809 5809 5809 5809 5806 5804 5802 5800 5798 5800 5800 5801 5802 5803 5804 5805 5807 5806 5804 5806 5807 5809 5811 5813 5813 5811 5816 5815 5816 5817
5841 5838 5834 5827 5825 5825 5822 5819 5816 5816 5816 5815 5814 5812 5811 5814 5815 5810 5808 5806 5804 5801 5800 5803 5806 5805 5805 5805 5805 5805 5806 5807 5807 5808 5812 5811 5813 5812 5817 5816 5816 5813 5814
5841 5837 5836 5831 5827 5827 5826 5822 5820 5819 5819 5818 5817 5816 5816 5816 5816 5813 5809 5809 5809 5807 5806 5808 5811 5817 5814 5815 5814 5811 5811 5809 5807 5809 5812 5814 5815 5814 5815 5814 5814 5814 5812
5839 5835 5835 5834 5830 5827 5825 5825 5823 5822 5822 5821 5821 5821 5820 5822 5819 5816 5812 5810 5810 5812 5814 5815 5815 5817 5820 5821 5822 5822 5823 5824 5820 5816 5818 5819 5818 5816 5814 5814 5813 5813 5817
5840 5840 5842 5839 5833 5829 5826 5826 5826 5824 5824 5825 5825 5825 5825 5826 5823 5819 5814 5813 5814 5817 5820 5821 5822 5823 5825 5822 5822 5822 5824 5827 5829 5830 5829 5827 5825 5819 5812 5809 5804 5804 5807
5847 5849 5845 5841 5836 5834 5830 5827 5827 5826 5827 5829 5829 5831 5831 5831 5829 5824 5819 5821 5822 5824 5826 5827 5826 5828 5828 5824 5824 5825 5826 5827 5829 5832 5833 5830 5825 5821 5815 5807 5808 5804 5805
5845 5843 5842 5840 5837 5835 5831 5828 5828 5828 5830 5829 5831 5833 5834 5835 5835 5829 5825 5828 5831 5832 5833 5836 5839 5834 5830 5827 5824 5828 5829 5829 5829 5828 5829 5830 5827 5825 5824 5819 5815 5809 5799
5842 5842 5840 5837 5834 5833 5831 5830 5829 5829 5827 5829 5828 5831 5837 5838 5835 5832 5830 5830 5835 5835 5838 5843 5844 5838 5833 5829 5826 5827 5825 5821 5824 5824 5825 5824 5823 5823 5821 5816 5812 5808 5802
5840 5838 5835 5832 5829 5835 5829 5828 5827 5828 5832 5829 5832 5833 5838 5844 5843 5837 5833 5831 5830 5832 5841 5843 5837 5833 5830 5827 5825 5825 5821 5821 5823 5823 5820 5820 5816 5816 5813 5809 5807 5804 5802
5834 5830 5830 5826 5824 5828 5829 5828 5829 5832 5832 5837 5837 5838 5842 5844 5847 5850 5840 5832 5828 5828 5830 5834 5834 5831 5830 5829 5828 5824 5824 5824 5823 5815 5814 5816 5816 5809 5806 5805 5801 5801 5804
5829 5827 5827 5828 5822 5822 5826 5827 5830 5835 5836 5838 5841 5843 5842 5842 5847 5848 5847 5846 5841 5838 5834 5833 5833 5831 5828 5826 5825 5826 5825 5821 5815 5814 5810 5808 5805 5804 5804 5802 5799 5801 5797
5822 5825 5827 5828 5824 5823 5823 5818 5809 5813 5814 5821 5828 5832 5845 5839 5839 5838 5835 5832 5829 5829 5827 5831 5831 5823 5821 5821 5821 5819 5817 5813 5810 5807 5804 5805 5804 5802 5800 5800 5801 5798 5790
5811 5819 5816 5820 5821 5818 5816 5819 5816 5812 5807 5804 5805 5817 5821 5821 5826 5825 5820 5815 5815 5817 5824 5828 5824 5825 5824 5819 5815 5815 5812 5810 5808 5805 5804 5802 5799 5798 5797 5796 5795 5790 5783
5774 5799 5790 5800 5812 5806 5804 5808 5812 5815 5811 5809 5796 5799 5806 5808 5814 5811 5808 5807 5809 5806 5813 5812 5813 5814 5811 5809 5808 5807 5804 5802 5800 5800 5800 5799 5798 5796 5794 5791 5787 5781 5777
5774 5782 5765 5789 5799 5801 5802 5801 5800 5796 5813 5801 5793 5781 5789 5796 5801 5798 5798 5808 5811 5810 5806 5804 5803 5800 5799 5799 5798 5796 5795 5795 5798 5798 5795 5794 5793 5790 5784 5782 5780 5766 5758
5755 5746 5763 5774 5772 5774 5777 5792 5789 5785 5800 5795 5799 5796 5790 5795 5797 5795 5791 5790 5794 5799 5800 5795 5792 5790 5792 5788 5788 5789 5789 5788 5787 5785 5785 5785 5782 5779 5776 5775 5772 5765 5751
5744 5757 5758 5767 5776 5773 5769 5780 5789 5785 5778 5774 5777 5782 5780 5795 5792 5788 5784 5785 5786 5786 5786 5785 5785 5782 5781 5782 5782 5781 5782 5780 5780 5778 5776 5771 5770 5768 5766 5763 5758 5752 5746
5729 5739 5746 5756 5768 5769 5776 5779 5776 5773 5773 5773 5775 5771 5767 5783 5786 5786 5780 5775 5770 5768 5765 5766 5768 5764 5759 5760 5761 5763 5764 5764 5764 5763 5759 5756 5756 5753 5751 5748 5746 5743 5738
5712 5719 5729 5739 5748 5754 5756 5757 5762 5763 5767 5771 5772 5765 5761 5766 5767 5764 5759 5759 5755 5753 5750 5749 5747 5747 5742 5741 5741 5742 5743 5743 5743 5742 5741 5741 5740 5740 5739 5737 5735 5732 5728
5681 5694 5703 5718 5732 5738 5745 5748 5750 5742 5747 5756 5753 5752 5752 5749 5745 5739 5740 5739 5736 5735 5731 5730 5728 5727 5725 5725 5723 5721 5721 5719 5721 5728 5728 5727 5726 5725 5724 5722 5725 5721 5718
5652 5658 5663 5670 5682 5690 5703 5710 5715 5717 5716 5718 5721 5724 5724 5722 5720 5719 5719 5718 5717 5714 5710 5709 5707 5705 5702 5700 5700 5700 5697 5701 5701 5702 5706 5714 5718 5715 5710 5710 5712 5708 5703
5622 5628 5633 5636 5640 5644 5651 5659 5667 5673 5676 5676 5677 5678 5682 5684 5686 5687 5688 5689 5690 5690 5689 5685 5686 5686 5685 5680 5676 5678 5682 5683 5685 5687 5689 5696 5701 5702 5701 5698 5695 5692 5691